Weather History for Port Hedland, WE

Change the Weather History Date:

Saturday, December 21, 2013

  Actual Average Record
Temperature  
Mean Temperature 88 °F -  
Max Temperature 94 °F 97 °F 100 °F (2011)
Min Temperature 81 °F 77 °F 75 °F (1999)
Cooling Degree Days 22    
Growing Degree Days 38 (Base 50)    
Moisture  
Dew Point 76 °F    
Average Humidity 69    
Maximum Humidity 84    
Minimum Humidity 51    
Precipitation  
Precipitation 0.00 in 0.07 in - ()
Sea Level Pressure  
Sea Level Pressure 29.66 in    
Wind  
Wind Speed 9 mph ()    
Max Wind Speed 20 mph    
Max Gust Speed -    
Visibility 6.2 miles    
Events      
Averages and records for this station are not official NWS values.
T = Trace of Precipitation, MM = Missing Value Source: Averaged Metar Reports

Daily Weather History Graph

Daily Weather History Graph

Search for Another Location

Airport:

Trip Planner

Search our weather history database for the weather conditions in past years. The results will help you decide how hot, cold, wet, or windy it might be!

Date:

Astronomy

Dec. 21, 2013 Rise Set
Actual Time 5:22 AM AWST 6:44 PM AWST
Civil Twilight 4:57 AM AWST 7:09 PM AWST
Nautical Twilight 4:28 AM AWST 7:38 PM AWST
Astronomical Twilight 3:57 AM AWST 8:09 PM AWST
Moon 9:26 PM AWST (12/21) 8:24 AM AWST (12/21)
Length of Visible Light 14h 11m
Length of Day
13h 22m
Waning Gibbous, 88% of the Moon is Illuminated
Dec 21
Waning Gibbous
Dec 25
Last Quarter
Jan 1
New
Jan 8
First Quarter
Jan 16
Full

Hourly Weather History & Observations

Time (AWST) Temp. Heat Index Dew Point Humidity Pressure Visibility Wind Dir Wind Speed Gust Speed Precip Events Conditions
12:00 AM 83 °F - 76 °F 74% 29.69 in - North 5.8 mph - -  
12:00 AM 84.2 °F 92.3 °F 75.2 °F 74% 29.68 in 6.2 mi North 5.8 mph - N/A   Unknown
12:30 AM 82.4 °F 89.5 °F 75.2 °F 79% 29.65 in 6.2 mi NNW 8.1 mph - N/A   Unknown
1:00 AM 82.4 °F 89.5 °F 75.2 °F 79% 29.65 in 6.2 mi NNW 8.1 mph - N/A   Unknown
1:30 AM 82.4 °F 89.5 °F 75.2 °F 79% 29.65 in 6.2 mi North 6.9 mph - N/A   Unknown
2:00 AM 83 °F - 76 °F 73% 29.67 in - North 6.9 mph - -  
2:00 AM 82.4 °F 89.5 °F 75.2 °F 79% 29.65 in 6.2 mi North 6.9 mph - N/A   Unknown
2:30 AM 82.4 °F 89.5 °F 75.2 °F 79% 29.65 in 6.2 mi North 8.1 mph - N/A   Unknown
3:00 AM 83 °F - 76 °F 73% 29.66 in - North 6.9 mph - -  
3:00 AM 82.4 °F 89.5 °F 75.2 °F 79% 29.65 in 6.2 mi North 6.9 mph - N/A   Unknown
3:30 AM 82.4 °F 89.5 °F 75.2 °F 79% 29.65 in 6.2 mi North 9.2 mph - N/A   Unknown
4:00 AM 82.4 °F 89.5 °F 75.2 °F 79% 29.65 in 6.2 mi North 8.1 mph - N/A   Unknown
4:30 AM 82.4 °F 90.9 °F 77.0 °F 84% 29.65 in 6.2 mi North 8.1 mph - N/A   Unknown
5:00 AM 82 °F - 76 °F 78% 29.66 in - North 8.1 mph - -  
5:00 AM 82.4 °F 90.9 °F 77.0 °F 84% 29.65 in 6.2 mi North 8.1 mph - N/A   Unknown
5:30 AM 82.4 °F 90.9 °F 77.0 °F 84% 29.65 in 6.2 mi North 10.4 mph - N/A   Unknown
6:00 AM 84 °F - 76 °F 72% 29.67 in - NNE 11.5 mph - -  
6:00 AM 84.2 °F 94.1 °F 77.0 °F 79% 29.65 in 6.2 mi North 11.5 mph - N/A   Unknown
6:30 AM 84.2 °F 94.1 °F 77.0 °F 79% 29.65 in 6.2 mi North 12.7 mph - N/A   Unknown
7:00 AM 86.0 °F 96.9 °F 77.0 °F 74% 29.68 in 6.2 mi North 12.7 mph - N/A   Unknown
7:30 AM 87.8 °F 99.7 °F 77.0 °F 70% 29.68 in 6.2 mi North 11.5 mph - N/A   Unknown
8:00 AM 87 °F - 77 °F 65% 29.70 in - NNE 5.8 mph - -  
8:00 AM 87.8 °F 99.7 °F 77.0 °F 70% 29.68 in 6.2 mi NNE 5.8 mph - N/A   Scattered Clouds
8:30 AM 87.8 °F 99.7 °F 77.0 °F 70% 29.68 in 6.2 mi ENE 10.4 mph - N/A   Unknown
9:00 AM 89 °F - 76 °F 59% 29.70 in - NNE 9.2 mph - -  
9:00 AM 89.6 °F 102.2 °F 77.0 °F 66% 29.68 in 6.2 mi NNE 9.2 mph - N/A   Unknown
9:30 AM 89.6 °F 102.2 °F 77.0 °F 66% 29.68 in 6.2 mi NE 11.5 mph - N/A   Unknown
10:00 AM 91.4 °F 105.1 °F 77.0 °F 63% 29.71 in 6.2 mi NE 13.8 mph - N/A   Unknown
10:30 AM 91.4 °F 105.1 °F 77.0 °F 63% 29.68 in 6.2 mi NE 15.0 mph - N/A   Unknown
11:00 AM 90 °F - 75 °F 54% 29.70 in - NNE 15.0 mph - -  
11:00 AM 91.4 °F 102.5 °F 75.2 °F 59% 29.68 in 6.2 mi NNE 15.0 mph - N/A   Unknown
11:30 AM 91.4 °F 105.1 °F 77.0 °F 63% 29.68 in 6.2 mi NNE 15.0 mph - N/A   Unknown
12:00 PM 92 °F - 76 °F 51% 29.69 in - NNE 15.0 mph - -  
12:00 PM 91.4 °F 102.5 °F 75.2 °F 59% 29.68 in 6.2 mi NNE 15.0 mph - N/A   Unknown
12:30 PM 91.4 °F 105.1 °F 77.0 °F 63% 29.68 in 6.2 mi NNE 16.1 mph - N/A   Unknown
1:00 PM 91.4 °F 105.1 °F 77.0 °F 63% 29.65 in 6.2 mi NNE 16.1 mph - N/A   Unknown
1:30 PM 91.4 °F 105.1 °F 77.0 °F 63% 29.65 in 6.2 mi NNE 17.3 mph - N/A   Unknown
2:00 PM 91 °F - 77 °F 55% 29.65 in - NNE 19.6 mph - -  
2:00 PM 91.4 °F 105.1 °F 77.0 °F 63% 29.65 in 6.2 mi NNE 19.6 mph - N/A   Unknown
2:30 PM 91.4 °F 105.1 °F 77.0 °F 63% 29.62 in 6.2 mi NNE 19.6 mph - N/A   Unknown
3:00 PM 92 °F - 77 °F 53% 29.64 in - NNE 17.3 mph - -  
3:00 PM 91.4 °F 105.1 °F 77.0 °F 63% 29.62 in 6.2 mi NNE 17.3 mph - N/A   Unknown
3:30 PM 89.6 °F 104.7 °F 78.8 °F 70% 29.62 in 6.2 mi North 15.0 mph - N/A   Unknown
4:00 PM 89.6 °F 104.7 °F 78.8 °F 70% 29.62 in 6.2 mi North 17.3 mph - N/A   Mostly Cloudy
4:30 PM 87.8 °F 102.5 °F 78.8 °F 75% 29.62 in 6.2 mi North 17.3 mph - N/A   Mostly Cloudy
5:00 PM 88 °F - 79 °F 68% 29.62 in - North 15.0 mph - -  
5:00 PM 87.8 °F 102.5 °F 78.8 °F 75% 29.62 in 6.2 mi North 15.0 mph - N/A   Scattered Clouds
5:05 PM 89.6 °F 102.2 °F 77.0 °F 66% 29.62 in 6.2 mi North 13.8 mph - N/A   Scattered Clouds
5:30 PM 87.8 °F 99.7 °F 77.0 °F 70% 29.62 in 6.2 mi North 12.7 mph - N/A   Unknown
6:00 PM 88 °F - 76 °F 60% 29.63 in - North 10.4 mph - -  
6:00 PM 87.8 °F 97.6 °F 75.2 °F 66% 29.62 in 6.2 mi North 10.4 mph - N/A   Unknown
6:30 PM 87.8 °F 97.6 °F 75.2 °F 66% 29.62 in 6.2 mi North 10.4 mph - N/A   Unknown
7:00 PM 86.0 °F 95.1 °F 75.2 °F 70% 29.62 in 6.2 mi NNW 9.2 mph - N/A   Unknown
7:30 PM 86.0 °F 95.1 °F 75.2 °F 70% 29.65 in 6.2 mi North 9.2 mph - N/A   Unknown
8:00 PM 86 °F - 75 °F 63% 29.68 in - North 3.5 mph - -  
8:00 PM 86.0 °F 95.1 °F 75.2 °F 70% 29.68 in 6.2 mi North 3.5 mph - N/A   Unknown
8:30 PM 86.0 °F 95.1 °F 75.2 °F 70% 29.68 in 6.2 mi NNE 5.8 mph - N/A   Unknown
9:00 PM 85 °F - 75 °F 65% 29.70 in - NNE 5.8 mph - -  
9:00 PM 86.0 °F 95.1 °F 75.2 °F 70% 29.68 in 6.2 mi NNE 5.8 mph - N/A   Unknown
9:30 PM 86.0 °F 95.1 °F 75.2 °F 70% 29.68 in 6.2 mi NNE 9.2 mph - N/A   Unknown
10:00 PM 86.0 °F 95.1 °F 75.2 °F 70% 29.71 in 6.2 mi North 10.4 mph - N/A   Unknown
10:30 PM 84.2 °F 92.3 °F 75.2 °F 74% 29.71 in 6.2 mi North 9.2 mph - N/A   Unknown
11:00 PM 85 °F - 75 °F 65% 29.71 in - North 10.4 mph - -  
11:00 PM 84.2 °F 92.3 °F 75.2 °F 74% 29.71 in 6.2 mi North 10.4 mph - N/A   Unknown
11:30 PM 84.2 °F 92.3 °F 75.2 °F 74% 29.71 in 6.2 mi North 8.1 mph - N/A   Unknown